{"data":{"norad_id":43643,"epoch":"2026-09-20T04:12:48.172320Z","epoch_age_seconds":82775,"freshness":"FRESH","line1":"1 43643U 18077B   26263.17555755  .00000294  00000+0  66102-4 0  9995","line2":"2 43643  98.1439 290.5206 0004498 286.6938  73.3770 14.63270466423721","mean_motion":14.63270466,"eccentricity":0.0004498,"inclination_deg":98.1439,"raan_deg":290.5206,"arg_perigee_deg":286.6938,"mean_anomaly_deg":73.377,"bstar":6.6102e-5,"rev_number":42372,"period_min":98.409694821244,"perigee_km":679.45768977947,"apogee_km":685.80955903319,"semimajor_km":7060.7706244063,"source":"CELESTRAK","updated_at":"2026-09-20T09:00:14.364484Z"}}